STARLINK-31937 (59871 NORAD) Tracking and Keplerian Element Data

This shows tracking and keplerian element data for the satellite.

Feedback or suggestion? Click here.




ElementValue
Catalog59871
NameSTARLINK-31937
Epoch Orbit294
Epoch Day160.16667824
Epoch Year2024
RAAN327.998
Inclination43.0015
Eccentricity0.0002344
Argument of Perigee287.9306
Mean Anonmoly193.6298
Mean Motion15.73513909
Decay Rate-0.01604581
L11 59871U 24098P 24160.16667824 -.01604581 00000+0 -12539-1 0 9993
L22 59871 43.0015 327.9980 0002344 287.9306 193.6298 15.73513909 2947



Live tracking and technical data element details for STARLINK-31937 (NORAD 59871). STARLINK-31937 can be tracked NOW for your location showing map with azimuth and elevation plus other details from your city location.







IsCatalogInMostPopularTable: catalog: 59871, numindb: 6
Update: records affected: 1



GetName: 59871 STARLINK-31937

Hit Count: updated at: Tue, 16 Jul 2024 02:20:44 GMT